Home > Weather > Lautoka > Past weeks

Flag for Fiji Past Weather in Lautoka, Fiji — Yesterday and Last 2 Weeks

Now
72 °F

Passing clouds.


Feels Like: 72 °F
Forecast: 73 / 83 °F
Wind: 3 mph from Northeast

Location: Nandi

Current Time: Jul 29, 2016 at 8:23:20 AM

Latest Report: Jul 29, 2016 at 8:00 AM


Visibility: N/A

Pressure: 29.95 "Hg

Humidity: 78%

Dew Point: 64 °F

Location of LautokaLocation

Past Weather in Lautoka — Graph

°F

Lautoka Temperature Yesterday

Maximum temperature yesterday: 84 °F (at 11:00 AM)
Minimum temperature yesterday: 64 °F (at 7:00 AM)
Average temperature yesterday: 75 °F

High & Low Weather Summary for the Past Weeks

 TemperatureHumidityPressure
High88 °F (Jul 26, 11:00 AM)94% (Jul 14, 7:00 AM)30.09 "Hg (Jul 14, 7:00 AM)
Low61 °F (Jul 18, 4:00 AM)40% (Jul 20, 11:00 AM)29.86 "Hg (Jul 22, 3:00 PM)
Average74 °F72%29.98 "Hg
* Reported Jul 14 7:00 AM — Jul 29 7:00 AM, Lautoka, Weather by CustomWeather, © 2016

Note: Actual official high and low records may vary slightly from our data, if they occured in-between our weather recording intervals... More about our weather records

Advertising

Lautoka Weather History for the Previous 24 Hours

Scroll right to see more
 ConditionsComfort  
Time TempWeatherWind HumidityBarometerVisibility
7:00 AM
Fri, Jul 29
66 °FPassing clouds.5 mph88%29.95 "HgN/A
6:00 AM66 °FPassing clouds.5 mph88%29.92 "HgN/A
5:00 AM66 °FPassing clouds.6 mph88%29.92 "HgN/A
4:00 AM68 °FPassing clouds.5 mph83%29.92 "HgN/A
3:00 AM68 °FPassing clouds.5 mph88%29.92 "HgN/A
2:00 AM70 °FPassing clouds.6 mph83%29.92 "HgN/A
1:00 AM70 °FPassing clouds.6 mph88%29.95 "HgN/A
12:00 AM72 °FPassing clouds.5 mph83%29.95 "HgN/A
11:00 PM
Thu, Jul 28
72 °FPassing clouds.5 mph83%29.95 "HgN/A
10:00 PM73 °FPassing clouds.6 mph78%29.95 "HgN/A
9:00 PM73 °FPassing clouds.7 mph83%29.95 "HgN/A
8:00 PM75 °FPassing clouds.No wind78%29.95 "HgN/A
7:00 PM77 °FPassing clouds.6 mph79%29.92 "HgN/A
6:00 PM79 °FPartly cloudy.8 mph74%29.92 "HgN/A
5:00 PM81 °FScattered clouds.10 mph66%29.89 "HgN/A
4:00 PM82 °FScattered clouds.13 mph55%29.89 "HgN/A
3:00 PM82 °FPassing clouds.13 mph58%29.89 "HgN/A
2:00 PM82 °FPassing clouds.14 mph58%29.89 "HgN/A
1:00 PM82 °FPassing clouds.14 mph58%29.92 "HgN/A
12:00 PM84 °FPassing clouds.5 mph48%29.95 "HgN/A
11:00 AM84 °FPassing clouds.5 mph48%29.98 "HgN/A
10:00 AM81 °FPassing clouds.6 mph54%30.01 "HgN/A
9:00 AM77 °FSunny.5 mph65%30.01 "Hg10 mi
8:00 AM70 °FSunny.5 mph78%30.01 "Hg10 mi
Weather by CustomWeather, © 2016

See weather overviewHow to use our weather pages